CW8198 Weather Reports


Display with metric or nautical units.
time (UTC)temp
F
wind
direction
speed
MPH
gust
MPH
rain 1hr
in
rain 24hr
in
rain mn
in
humidity
%
barometer
mb
20260903070559 83 221 4.0 8.0 0.00 0.00 0.00 61 1010.3
20260903070100 83 132 4.0 10.0 0.00 0.00 0.00 61 1010.2
20260903065059 83 171 4.0 10.0 0.00 0.00 0.00 61 1010.3
20260903064559 83 184 3.0 7.0 0.00 0.00 0.00 61 1010.2
20260903064100 83 183 4.0 11.0 0.00 0.00 0.00 60 1010.3
20260903063059 83 191 4.0 9.0 0.00 0.00 0.00 60 1010.2
20260903062059 83 128 5.0 10.0 0.00 0.00 0.00 60 1010.3
20260903061559 83 128 5.0 11.0 0.00 0.00 0.00 60 1010.3
20260903061059 84 121 5.0 11.0 0.00 0.00 0.00 60 1010.3
20260903060559 84 141 6.0 10.0 0.00 0.00 0.00 59 1010.3
20260903060058 84 177 5.0 12.0 0.00 0.00 0.00 59 1010.3
20260903055558 84 162 4.0 12.0 0.00 0.00 0.00 59 1010.4
20260903055058 84 157 6.0 11.0 0.00 0.00 0.00 59 1010.4
20260903054559 84 189 4.0 9.0 0.00 0.00 0.00 59 1010.4
20260903054059 84 171 6.0 11.0 0.00 0.00 0.00 59 1010.3
20260903053558 84 182 5.0 11.0 0.00 0.00 0.00 59 1010.3
20260903052057 84 183 6.0 10.0 0.00 0.00 0.00 59 1010.4
20260903051557 84 159 4.0 9.0 0.00 0.00 0.00 59 1010.4
20260903051057 84 146 4.0 9.0 0.00 0.00 0.00 59 1010.4
20260903050557 84 168 4.0 11.0 0.00 0.00 0.00 59 1010.3
20260903050057 84 171 4.0 12.0 0.00 0.00 0.00 59 1010.4
20260903045557 84 201 5.0 12.0 0.00 0.00 0.00 59 1010.3
20260903045057 84 178 4.0 9.0 0.00 0.00 0.00 58 1010.4
20260903044558 84 184 5.0 14.0 0.00 0.00 0.00 58 1010.4
20260903044057 84 177 4.0 14.0 0.00 0.00 0.00 58 1010.4
20260903043056 84 189 4.0 10.0 0.00 0.00 0.00 58 1010.4
20260903042557 84 186 5.0 10.0 0.00 0.00 0.00 58 1010.3
20260903042056 84 160 4.0 10.0 0.00 0.00 0.00 59 1010.4
20260903041556 84 123 5.0 10.0 0.00 0.00 0.00 58 1010.4
20260903041056 84 160 4.0 10.0 0.00 0.00 0.00 58 1010.4
20260903040556 85 165 5.0 10.0 0.00 0.00 0.00 58 1010.4
20260903040055 85 135 4.0 8.0 0.00 0.00 0.00 58 1010.3
20260903035555 85 205 4.0 8.0 0.00 0.00 0.00 58 1010.4
20260903035056 85 153 4.0 8.0 0.00 0.00 0.00 58 1010.3
20260903033556 85 146 5.0 10.0 0.00 0.00 0.00 58 1010.4
20260903033055 85 156 4.0 8.0 0.00 0.00 0.00 58 1010.3
20260903032056 85 175 3.0 7.0 0.00 0.00 0.00 58 1010.2
20260903031555 85 178 3.0 8.0 0.00 0.00 0.00 57 1010.2
20260903031056 85 178 2.0 8.0 0.00 0.00 0.00 57 1010.3
20260903030555 86 175 3.0 7.0 0.00 0.00 0.00 57 1010.3
20260903030055 86 151 4.0 6.0 0.00 0.00 0.00 56 1010.3
20260903025055 86 178 4.0 9.0 0.00 0.00 0.00 56 1010.3
20260903024554 86 175 3.0 9.0 0.00 0.00 0.00 56 1010.2
20260903024054 87 162 4.0 9.0 0.00 0.00 0.00 56 1010.2
20260903023554 87 124 4.0 9.0 0.00 0.00 0.00 56 1010.0
20260903023054 87 146 3.0 6.0 0.00 0.00 0.00 56 1009.9
20260903022553 87 171 3.0 9.0 0.00 0.00 0.00 55 1009.9
20260903021553 87 182 4.0 10.0 0.00 0.00 0.00 55 1009.9
20260903021053 88 178 4.0 10.0 0.00 0.00 0.00 55 1009.9
20260903020553 88 178 3.0 9.0 0.00 0.00 0.00 55 1009.8
20260903020053 88 156 3.0 9.0 0.00 0.00 0.00 55 1009.8
20260903015552 88 0 4.0 9.0 0.00 0.00 0.00 55 1009.6
20260903015053 88 139 4.0 9.0 0.00 0.00 0.00 55 1009.6
20260903014551 89 166 4.0 10.0 0.00 0.00 0.00 55 1009.5
20260903013552 89 183 4.0 8.0 0.00 0.00 0.00 54 1009.4
20260903011550 89 139 3.0 7.0 0.00 0.00 0.00 54 1009.3
20260903011051 90 147 4.0 6.0 0.00 0.00 0.00 54 1009.3
20260903010550 90 142 2.0 6.0 0.00 0.00 0.00 53 1009.3
20260903010050 90 157 3.0 10.0 0.00 0.00 0.00 53 1009.3
20260903005550 91 153 2.0 10.0 0.00 0.00 0.00 52 1009.3
20260903005051 91 137 2.0 6.0 0.00 0.00 0.00 52 1009.3
20260903004550 92 184 3.0 9.0 0.00 0.00 0.00 51 1009.3
20260903004049 92 177 5.0 9.0 0.00 0.00 0.00 50 1009.4
20260903003549 92 182 3.0 9.0 0.00 0.00 0.00 50 1009.4
20260903003050 92 195 4.0 11.0 0.00 0.00 0.00 50 1009.4
20260903002048 93 131 6.0 11.0 0.00 0.00 0.00 49 1009.4
20260903001048 93 191 3.0 10.0 0.00 0.00 0.00 49 1009.4
20260903000548 93 173 4.0 7.0 0.00 0.00 0.00 49 1009.3
20260903000048 94 196 3.0 7.0 0.00 0.00 0.00 49 1009.5
20260902235548 94 163 4.0 10.0 0.00 0.00 0.00 48 1009.5
20260902235050 94 142 4.0 10.0 0.00 0.00 0.00 47 1009.5
20260902234548 94 169 4.0 8.0 0.00 0.00 0.00 48 1009.5
20260902234048 94 193 3.0 9.0 0.00 0.00 0.00 48 1009.5
20260902233548 94 178 4.0 15.0 0.00 0.00 0.00 47 1009.5
20260902233048 95 207 5.0 15.0 0.00 0.00 0.00 48 1009.6
20260902232548 95 168 6.0 14.0 0.00 0.00 0.00 47 1009.5
20260902232047 95 178 5.0 14.0 0.00 0.00 0.00 47 1009.5
20260902231547 95 207 5.0 13.0 0.00 0.00 0.00 47 1009.6
20260902231047 95 234 8.0 16.0 0.00 0.00 0.00 47 1009.6
20260902230546 95 225 6.0 16.0 0.00 0.00 0.00 46 1009.6
20260902230046 95 209 6.0 15.0 0.00 0.00 0.00 46 1009.6
20260902225048 96 225 7.0 16.0 0.00 0.00 0.00 47 1009.7
20260902224546 96 196 5.0 11.0 0.00 0.00 0.00 48 1009.7
20260902223546 96 223 7.0 13.0 0.00 0.00 0.00 47 1009.7
20260902222545 95 238 8.0 15.0 0.00 0.00 0.00 46 1009.6
20260902222044 95 166 6.0 11.0 0.00 0.00 0.00 47 1009.7
20260902221545 95 223 7.0 11.0 0.00 0.00 0.00 48 1009.7
20260902221044 95 229 7.0 16.0 0.00 0.00 0.00 48 1009.6
20260902220544 94 245 5.0 16.0 0.00 0.00 0.00 48 1009.7
20260902215544 94 200 6.0 20.0 0.00 0.00 0.00 48 1009.7
20260902214543 95 192 8.0 16.0 0.00 0.00 0.00 45 1009.8
20260902214043 95 195 5.0 12.0 0.00 0.00 0.00 47 1009.7
20260902213543 95 240 5.0 12.0 0.00 0.00 0.00 50 1009.8
20260902213042 94 214 7.0 15.0 0.00 0.00 0.00 49 1009.7
20260902212542 94 229 10.0 15.0 0.00 0.00 0.00 48 1009.9
20260902211040 94 193 6.0 17.0 0.00 0.00 0.00 49 1009.9
20260902210039 94 205 8.0 17.0 0.00 0.00 0.00 48 1010.0
20260902205540 94 196 7.0 14.0 0.00 0.00 0.00 49 1010.0
20260902205040 94 205 6.0 14.0 0.00 0.00 0.00 50 1010.0
20260902204539 94 279 6.0 12.0 0.00 0.00 0.00 48 1010.2
20260902204039 94 191 7.0 13.0 0.00 0.00 0.00 48 1010.2
20260902203039 95 244 9.0 17.0 0.00 0.00 0.00 46 1010.3
20260902202538 95 202 7.0 16.0 0.00 0.00 0.00 46 1010.3
20260902202038 95 159 9.0 16.0 0.00 0.00 0.00 44 1010.5
20260902201538 95 244 7.0 12.0 0.00 0.00 0.00 46 1010.5
20260902201038 95 177 6.0 15.0 0.00 0.00 0.00 48 1010.5
20260902200537 94 225 7.0 15.0 0.00 0.00 0.00 47 1010.4
20260902194537 94 196 8.0 17.0 0.00 0.00 0.00 48 1010.5
20260902194037 94 202 8.0 15.0 0.00 0.00 0.00 49 1010.6
20260902193537 93 225 7.0 15.0 0.00 0.00 0.00 53 1010.6
20260902193036 92 236 8.0 15.0 0.00 0.00 0.00 50 1010.7
20260902192537 92 203 8.0 14.0 0.00 0.00 0.00 49 1010.8
20260902192036 92 209 8.0 14.0 0.00 0.00 0.00 49 1010.7
20260902191535 93 211 6.0 12.0 0.00 0.00 0.00 49 1010.6
20260902191035 93 243 5.0 12.0 0.00 0.00 0.00 54 1010.7
20260902190035 93 200 6.0 15.0 0.00 0.00 0.00 50 1010.8
20260902185534 92 178 6.0 12.0 0.00 0.00 0.00 50 1010.8
20260902185036 92 171 6.0 12.0 0.00 0.00 0.00 53 1010.9
20260902184534 92 155 4.0 12.0 0.00 0.00 0.00 52 1011.0
20260902184034 92 175 5.0 14.0 0.00 0.00 0.00 53 1011.1
20260902183534 92 146 6.0 14.0 0.00 0.00 0.00 54 1011.1
20260902183033 91 131 6.0 13.0 0.00 0.00 0.00 54 1011.2
20260902182532 91 196 6.0 13.0 0.00 0.00 0.00 52 1011.2
20260902181532 91 160 7.0 11.0 0.00 0.00 0.00 51 1011.2
20260902181033 91 194 5.0 12.0 0.00 0.00 0.00 50 1011.3
20260902180532 91 144 5.0 16.0 0.00 0.00 0.00 50 1011.3
20260902180032 92 255 8.0 16.0 0.00 0.00 0.00 48 1011.3
20260902175532 92 186 8.0 14.0 0.00 0.00 0.00 49 1011.4
20260902175033 92 211 7.0 12.0 0.00 0.00 0.00 49 1011.4
20260902174531 92 196 7.0 11.0 0.00 0.00 0.00 51 1011.5
20260902174031 91 189 4.0 9.0 0.00 0.00 0.00 52 1011.5
20260902173532 90 149 4.0 11.0 0.00 0.00 0.00 52 1011.6
20260902173032 90 178 6.0 11.0 0.00 0.00 0.00 52 1011.6
20260902172530 89 193 4.0 9.0 0.00 0.00 0.00 55 1011.6
20260902172030 89 198 2.0 9.0 0.00 0.00 0.00 55 1011.6
20260902171529 88 171 4.0 8.0 0.00 0.00 0.00 55 1011.6
20260902170028 87 207 6.0 10.0 0.00 0.00 0.00 54 1011.7
20260902165528 87 151 3.0 9.0 0.00 0.00 0.00 55 1011.8
20260902165029 87 215 2.0 5.0 0.00 0.00 0.00 59 1011.8
20260902164528 86 196 3.0 6.0 0.00 0.00 0.00 56 1011.8
20260902164028 86 146 2.0 6.0 0.00 0.00 0.00 58 1011.8
20260902163528 86 165 2.0 5.0 0.00 0.00 0.00 57 1011.8
20260902163027 86 191 2.0 6.0 0.00 0.00 0.00 56 1011.7
20260902162527 86 205 3.0 6.0 0.00 0.00 0.00 55 1011.8
20260902162027 86 212 3.0 7.0 0.00 0.00 0.00 56 1011.8
20260902161527 86 144 3.0 9.0 0.00 0.00 0.00 55 1011.8
20260902161026 86 196 4.0 11.0 0.00 0.00 0.00 55 1011.8
20260902160525 86 215 4.0 11.0 0.00 0.00 0.00 54 1011.9
20260902160025 86 187 6.0 10.0 0.00 0.00 0.00 55 1011.8
20260902155525 85 186 4.0 8.0 0.00 0.00 0.00 56 1011.7
20260902155027 85 187 4.0 9.0 0.00 0.00 0.00 56 1011.8
20260902154525 86 178 5.0 9.0 0.00 0.00 0.00 55 1011.8
20260902154025 85 223 5.0 9.0 0.00 0.00 0.00 56 1011.8
20260902153525 85 171 3.0 8.0 0.00 0.00 0.00 58 1011.7
20260902153024 85 189 3.0 10.0 0.00 0.00 0.00 59 1011.9
20260902152525 85 232 4.0 10.0 0.00 0.00 0.00 61 1011.9
20260902152024 85 215 4.0 8.0 0.00 0.00 0.00 60 1011.8
20260902151524 84 188 2.0 5.0 0.00 0.00 0.00 64 1011.7
20260902151024 83 124 2.0 6.0 0.00 0.00 0.00 66 1011.8
20260902150524 83 178 2.0 6.0 0.00 0.00 0.00 65 1011.8
20260902150024 82 93 2.0 7.0 0.00 0.00 0.00 65 1011.7
20260902145523 82 209 1.0 7.0 0.00 0.00 0.00 66 1011.7
20260902145024 82 132 2.0 7.0 0.00 0.00 0.00 66 1011.6
20260902144523 81 198 4.0 7.0 0.00 0.00 0.00 66 1011.7
20260902144022 80 234 2.0 5.0 0.00 0.00 0.00 70 1011.7
20260902143523 80 200 2.0 5.0 0.00 0.00 0.00 70 1011.6
20260902143022 79 193 2.0 4.0 0.00 0.00 0.00 70 1011.8
20260902142522 79 162 1.0 5.0 0.00 0.00 0.00 69 1011.7
20260902141516 79 178 2.0 6.0 0.00 0.00 0.00 68 1011.9
20260902141016 79 163 2.0 6.0 0.00 0.00 0.00 67 1012.0
20260902140516 79 132 2.0 9.0 0.00 0.00 0.00 68 1011.9
20260902140015 79 131 2.0 9.0 0.00 0.00 0.00 69 1011.8
20260902135514 79 9 5.0 8.0 0.00 0.00 0.00 71 1011.8
20260902135014 78 221 2.0 6.0 0.00 0.00 0.00 73 1011.9
20260902134514 78 187 3.0 8.0 0.00 0.00 0.00 74 1011.8
20260902134013 78 153 3.0 8.0 0.00 0.00 0.00 74 1011.8
20260902133513 78 119 4.0 6.0 0.00 0.00 0.00 76 1011.9
20260902133013 77 158 2.0 5.0 0.00 0.00 0.00 79 1012.0
20260902132513 76 162 2.0 7.0 0.00 0.00 0.00 81 1012.0
20260902131512 75 126 2.0 4.0 0.00 0.00 0.00 84 1012.2
20260902131012 74 196 2.0 4.0 0.00 0.00 0.00 85 1012.1
20260902130511 74 146 2.0 3.0 0.00 0.00 0.00 85 1012.3
20260902130010 73 196 1.0 2.0 0.00 0.00 0.00 85 1012.2
20260902125511 73 129 1.0 2.0 0.00 0.00 0.00 85 1012.3
20260902125012 73 93 0.0 2.0 0.00 0.00 0.00 85 1012.3
20260902124510 73 146 1.0 2.0 0.00 0.00 0.00 85 1012.3
20260902124009 73 178 1.0 2.0 0.00 0.00 0.00 85 1012.3
20260902123009 72 205 0.0 2.0 0.00 0.00 0.00 85 1012.3
20260902122509 72 111 0.0 2.0 0.00 0.00 0.00 85 1012.4
20260902122008 72 291 1.0 2.0 0.00 0.00 0.00 85 1012.4
20260902121509 72 31 1.0 2.0 0.00 0.00 0.00 85 1012.3
20260902121008 72 319 1.0 2.0 0.00 0.00 0.00 85 1012.4
20260902120508 72 232 1.0 2.0 0.00 0.00 0.00 85 1012.3
20260902120009 72 291 1.0 3.0 0.00 0.00 0.00 85 1012.3
20260902115508 72 26 1.0 3.0 0.00 0.00 0.00 85 1012.1
20260902115008 72 178 1.0 7.0 0.00 0.00 0.00 85 1012.1
20260902114509 72 61 4.0 7.0 0.00 0.00 0.00 85 1011.9
20260902114007 72 232 2.0 5.0 0.00 0.00 0.00 85 1012.2
20260902113008 73 26 2.0 6.0 0.00 0.00 0.00 86 1012.0
20260902111508 73 128 2.0 5.0 0.00 0.00 0.00 86 1012.0
20260902111007 73 254 2.0 5.0 0.00 0.00 0.00 86 1012.1
20260902110507 73 265 2.0 9.0 0.00 0.00 0.00 86 1012.2
20260902110008 73 16 6.0 9.0 0.00 0.00 0.00 87 1012.2
20260902105007 72 93 4.0 8.0 0.00 0.00 0.00 87 1012.3
20260902104007 72 0 0.0 3.0 0.00 0.00 0.00 86 1012.2
20260902103507 72 291 0.0 2.0 0.00 0.00 0.00 86 1012.2
20260902103009 72 9 0.0 3.0 0.00 0.00 0.00 86 1012.2
20260902102506 72 265 0.0 3.0 0.00 0.00 0.00 86 1012.1
20260902101506 72 205 1.0 3.0 0.00 0.00 0.00 85 1012.2
20260902100506 73 265 1.0 3.0 0.00 0.00 0.00 84 1012.4
20260902100005 73 93 1.0 4.0 0.00 0.00 0.00 84 1012.4
20260902095507 73 210 1.0 4.0 0.00 0.00 0.00 84 1012.4
20260902094506 73 51 0.0 2.0 0.00 0.00 0.00 82 1012.4
20260902094006 73 9 1.0 5.0 0.00 0.00 0.00 82 1012.5
20260902093506 74 178 2.0 5.0 0.00 0.00 0.00 81 1012.4
20260902093005 74 165 2.0 5.0 0.00 0.00 0.00 80 1012.5
20260902091508 74 111 1.0 4.0 0.00 0.00 0.00 77 1012.6
20260902090506 75 325 1.0 2.0 0.00 0.00 0.00 76 1012.6
20260902085505 76 9 0.0 2.0 0.00 0.00 0.00 74 1012.5
20260902085005 76 119 1.0 2.0 0.00 0.00 0.00 74 1012.5
20260902084506 76 41 0.0 2.0 0.00 0.00 0.00 74 1012.4
20260902084006 76 51 1.0 4.0 0.00 0.00 0.00 73 1012.6
20260902083506 76 165 1.0 4.0 0.00 0.00 0.00 73 1012.7
20260902083005 76 34 1.0 7.0 0.00 0.00 0.00 73 1012.7
20260902082005 76 209 2.0 9.0 0.00 0.00 0.00 72 1012.8
20260902081505 77 178 1.0 3.0 0.00 0.00 0.00 71 1012.6
20260902081005 77 230 2.0 5.0 0.00 0.00 0.00 71 1012.6
20260902080505 77 13 2.0 12.0 0.00 0.00 0.00 70 1012.7
20260902080004 77 43 7.0 12.0 0.00 0.00 0.00 70 1012.9
20260902075504 77 34 3.0 8.0 0.00 0.00 0.00 70 1012.8
20260902074504 78 338 6.0 11.0 0.00 0.00 0.00 66 1012.9
20260902074004 79 319 1.0 4.0 0.00 0.00 0.00 64 1012.4
20260902073504 79 232 1.0 5.0 0.00 0.00 0.00 63 1011.9
20260902073005 79 146 2.0 5.0 0.00 0.00 0.00 62 1011.9
20260902072503 79 178 1.0 6.0 0.00 0.00 0.00 62 1011.8
20260902072004 79 200 3.0 7.0 0.00 0.00 0.00 61 1011.7
20260902071504 80 142 4.0 7.0 0.00 0.00 0.00 61 1011.8
20260902071004 80 140 2.0 6.0 0.00 0.00 0.00 60 1011.8